Weather in Turunc

Turkey     36°46′20″N   28°14′24″E
temp.,
°C
wind,
m/s
gust,
m/s
humid.,
%
clouds,
%
prec.,
mm/h
press.,
hPa
HPBL,
m
16 may, sun
sun1600:00+18nw116829 0.0 101068
03:00+17nw23694 0.0 100994
06:00+17nw33703 0.0 100886
09:00+21w23543 0.0 1009316
12:00+22wsw5553100 0.0 1009569
15:00+22wsw65541 0.0 1008616
18:00+21w46630 0.0 1008393
21:00+19wnw58701 0.0 1009257
17 may, mon
mon1700:00+17wnw347549 0.0 1009197
03:00+16nw44813 0.0 1009142
06:00+16nw44757 0.0 1009112
09:00+21wnw33525 0.0 1010276
12:00+24w5442100 0.0 1010481
15:00+24wsw684737 0.0 1010414
18:00+23w57525 0.0 1010285
21:00+19wnw34711 0.0 101157
18 may, tue
tue1800:00+18wnw337723 0.0 101265
03:00+17nw11740 0.0 101158
06:00+17nw22730 0.0 101169
09:00+21wsw22651 0.0 1012203
12:00+23sw44580 0.0 1013393
15:00+23s446048 0.0 1013433
18:00+22ssw22625 0.0 1013271
21:00+19wnw11730 0.0 101315
19 may, wed
wed1900:00+19nw22735 0.0 101330
03:00+18nnw2273100 0.0 101249
06:00+18nnw22684 0.0 101240
09:00+22sse11544 0.0 1013164
12:00+24s32495 0.0 1013503
15:00+24s33520 0.0 1013467
18:00+23sse22550 0.0 1011281
21:00+20se11722 0.0 101211
20 may, thu
thu2000:00+19nne11710 0.0 101211
03:00+19nnw22630 0.0 101118
06:00+18n11630 0.0 101013
09:00+23s11510 0.0 1011184
12:00+25sw43465 0.0 1012469
15:00+24ssw43535 0.0 1011478
18:00+24sw34445 0.0 1011248
21:00+20w22630 0.0 101124